Simultaneous Nadir Overpasses (SNOs) Predictions

Prediction of SNOs between GOES-14 and NPP Satellite Orbit:

Table of predicted SNOs for the next 14.0 days since TLE Epoch: 6/8/2024
Index Date Time (GOES-14) GOES-14 Lat,Lon NPP Lat,Lon Distance(km) Time Diff (sec)
1 06/08/2024 20:46:05 -0.00,-108.56 -0.44,-110.54 225.41 80
2 06/09/2024 20:29:59 -0.02,-108.56 0.57,-106.00 291.99 80
3 06/11/2024 08:49:04 -0.01,-108.57 0.59,-111.27 307.20 80
4 06/12/2024 08:32:57 0.00,-108.57 -0.43,-106.73 210.01 80
5 06/13/2024 20:52:11 0.03,-108.55 -0.74,-112.02 396.27 80
6 06/14/2024 20:36:03 0.01,-108.55 0.22,-107.47 121.52 80
7 06/16/2024 08:55:10 -0.05,-108.57 0.87,-112.75 476.50 80
8 06/17/2024 08:39:02 -0.03,-108.56 -0.10,-108.20 40.70 80
9 06/19/2024 20:39:29 0.05,-108.53 -0.02,-108.96 49.41 80
10 06/20/2024 20:23:21 0.04,-108.52 0.96,-104.42 467.91 80
